Time,TemperatureF,DewpointF,PressureIn,WindDirection,WindDirectionDegrees,WindSpeedMPH,WindSpeedGustMPH,Humidity,HourlyPrecipIn,Conditions,Clouds,dailyrainin,SoftwareType,DateUTC
2013-04-13 00:14:00,40.6,39.3,29.74,NE,45,0.0,0.0,95,0.00,CLR,,0.00,WeatherDisplay:10.37,2013-04-12 23:14:00,
2013-04-13 00:29:00,40.5,39.1,29.74,NE,45,0.0,0.0,95,0.00,CLR,,0.00,WeatherDisplay:10.37,2013-04-12 23:29:00,
2013-04-13 00:44:00,40.5,39.1,29.74,NE,45,0.0,0.0,95,0.00,CLR,,0.00,WeatherDisplay:10.37,2013-04-12 23:44:00,
2013-04-13 00:59:00,40.3,39.0,29.74,NE,45,0.0,0.0,95,0.00,CLR,,0.00,WeatherDisplay:10.37,2013-04-12 23:59:00,
2013-04-13 01:14:00,40.3,39.2,29.74,NE,45,0.0,0.0,96,0.00,CLR,,0.00,WeatherDisplay:10.37,2013-04-13 00:14:00,
2013-04-13 01:29:00,40.3,39.2,29.74,NE,45,0.0,0.0,96,0.00,CLR,,0.00,WeatherDisplay:10.37,2013-04-13 00:29:00,
2013-04-13 01:44:00,40.3,39.2,29.74,NE,45,0.0,0.0,96,0.00,CLR,,0.00,WeatherDisplay:10.37,2013-04-13 00:44:00,
2013-04-13 01:59:00,40.3,39.2,29.74,NE,53,0.0,0.0,96,0.00,CLR,,0.00,WeatherDisplay:10.37,2013-04-13 00:59:00,
2013-04-13 02:14:00,40.3,39.2,29.74,NE,45,0.0,0.0,96,0.00,CLR,,0.00,WeatherDisplay:10.37,2013-04-13 01:14:00,
2013-04-13 02:29:00,40.3,39.2,29.77,NE,45,0.0,0.0,96,0.00,CLR,,0.00,WeatherDisplay:10.37,2013-04-13 01:29:00,
2013-04-13 02:44:00,40.3,39.2,29.77,NE,45,0.0,0.0,96,0.00,CLR,,0.00,WeatherDisplay:10.37,2013-04-13 01:44:00,
2013-04-13 02:59:00,40.3,39.2,29.77,NE,45,0.0,0.0,96,0.00,CLR,,0.00,WeatherDisplay:10.37,2013-04-13 01:59:00,
2013-04-13 03:14:00,40.1,39.1,29.74,ENE,59,0.0,0.0,96,0.00,CLR,,0.00,WeatherDisplay:10.37,2013-04-13 02:14:00,
2013-04-13 03:29:00,40.3,39.2,29.77,NE,45,0.0,0.0,96,0.00,CLR,,0.00,WeatherDisplay:10.37,2013-04-13 02:29:00,
2013-04-13 03:44:00,40.3,39.2,29.77,NE,45,0.0,0.0,96,0.00,CLR,,0.00,WeatherDisplay:10.37,2013-04-13 02:44:00,
2013-04-13 03:59:00,40.2,39.1,29.77,NE,45,0.0,2.0,96,0.00,CLR,,0.00,WeatherDisplay:10.37,2013-04-13 02:59:00,
2013-04-13 04:14:00,40.3,39.2,29.74,NE,45,0.0,0.0,96,0.00,CLR,,0.00,WeatherDisplay:10.37,2013-04-13 03:14:00,
2013-04-13 04:29:00,40.3,39.2,29.77,NE,45,0.0,0.0,96,0.00,CLR,,0.00,WeatherDisplay:10.37,2013-04-13 03:29:00,
2013-04-13 04:44:00,40.3,39.2,29.77,NE,45,0.0,0.0,96,0.00,CLR,,0.00,WeatherDisplay:10.37,2013-04-13 03:44:00,
2013-04-13 04:59:00,40.3,39.2,29.74,NE,50,0.0,0.0,96,0.00,CLR,,0.00,WeatherDisplay:10.37,2013-04-13 03:59:00,
2013-04-13 05:14:00,40.3,39.2,29.77,East,79,0.0,0.0,96,0.00,CLR,,0.00,WeatherDisplay:10.37,2013-04-13 04:14:00,
2013-04-13 05:29:00,40.3,39.2,29.77,NE,40,0.0,0.0,96,0.00,CLR,,0.00,WeatherDisplay:10.37,2013-04-13 04:29:00,
2013-04-13 05:44:00,40.1,39.1,29.77,NE,40,0.0,1.0,96,0.00,CLR,,0.00,WeatherDisplay:10.37,2013-04-13 04:44:00,
2013-04-13 05:59:00,40.1,39.1,29.77,NE,45,0.0,0.0,96,0.00,CLR,,0.00,WeatherDisplay:10.37,2013-04-13 04:59:00,
2013-04-13 06:14:00,39.9,38.9,29.77,NE,45,2.0,3.0,96,0.00,CLR,,0.00,WeatherDisplay:10.37,2013-04-13 05:14:00,
2013-04-13 06:29:00,39.9,38.9,29.77,NE,40,0.0,3.0,96,0.00,CLR,,0.00,WeatherDisplay:10.37,2013-04-13 05:29:00,
2013-04-13 06:44:00,39.9,38.9,29.77,NE,47,0.0,1.0,96,0.00,CLR,,0.00,WeatherDisplay:10.37,2013-04-13 05:44:00,
2013-04-13 06:59:00,39.9,38.9,29.77,NE,50,0.0,0.0,96,0.00,CLR,,0.00,WeatherDisplay:10.37,2013-04-13 05:59:00,
2013-04-13 07:14:00,39.9,38.9,29.80,ENE,70,2.0,3.0,96,0.00,CLR,,0.00,WeatherDisplay:10.37,2013-04-13 06:14:00,
2013-04-13 07:29:00,39.9,38.9,29.80,NE,47,0.0,3.0,96,0.00,CLR,,0.00,WeatherDisplay:10.37,2013-04-13 06:29:00,
2013-04-13 07:44:00,39.9,38.9,29.80,ENE,59,3.0,5.0,96,0.00,CLR,,0.00,WeatherDisplay:10.37,2013-04-13 06:44:00,
2013-04-13 07:59:00,39.9,38.9,29.80,NE,56,3.0,5.0,96,0.00,CLR,,0.00,WeatherDisplay:10.37,2013-04-13 06:59:00,
2013-04-13 08:14:00,39.9,38.9,29.80,NNE,24,3.0,4.0,96,0.00,CLR,,0.00,WeatherDisplay:10.37,2013-04-13 07:14:00,
2013-04-13 08:29:00,39.9,38.9,29.80,NNE,27,2.0,4.0,96,0.00,CLR,,0.00,WeatherDisplay:10.37,2013-04-13 07:29:00,
2013-04-13 08:44:00,40.3,39.5,29.80,NE,51,1.0,7.0,97,0.00,CLR,,0.00,WeatherDisplay:10.37,2013-04-13 07:44:00,
2013-04-13 08:59:00,40.3,39.5,29.80,NE,39,3.0,5.0,97,0.00,CLR,,0.00,WeatherDisplay:10.37,2013-04-13 07:59:00,
2013-04-13 09:14:00,40.3,39.5,29.80,NE,38,3.0,5.0,97,0.00,CLR,,0.00,WeatherDisplay:10.37,2013-04-13 08:14:00,
2013-04-13 09:29:00,40.5,39.7,29.80,NE,42,2.0,7.0,97,0.00,CLR,,0.00,WeatherDisplay:10.37,2013-04-13 08:29:00,
2013-04-13 09:44:00,40.6,39.9,29.80,NE,47,0.0,6.0,97,0.00,CLR,,0.00,WeatherDisplay:10.37,2013-04-13 08:44:00,
2013-04-13 09:59:00,40.8,40.0,29.80,NNE,33,2.0,4.0,97,0.00,CLR,,0.00,WeatherDisplay:10.37,2013-04-13 08:59:00,
2013-04-13 10:14:00,41.2,40.4,29.80,NE,41,2.0,5.0,97,0.00,CLR,,0.00,WeatherDisplay:10.37,2013-04-13 09:14:00,
2013-04-13 10:44:00,42.4,41.6,29.80,ENE,70,3.0,4.0,97,0.00,CLR,,0.00,WeatherDisplay:10.37,2013-04-13 09:44:00,
2013-04-13 10:59:00,45.8,44.9,29.80,SSE,154,2.0,6.0,97,0.00,CLR,,0.00,WeatherDisplay:10.37,2013-04-13 09:59:00,
2013-04-13 11:14:00,48.2,46.8,29.80,ESE,119,5.0,7.0,95,0.00,CLR,,0.00,WeatherDisplay:10.37,2013-04-13 10:14:00,
2013-04-13 11:29:00,49.3,45.3,29.80,ESE,122,6.0,8.0,86,0.00,CLR,,0.00,WeatherDisplay:10.37,2013-04-13 10:29:00,
2013-04-13 11:44:00,48.9,41.3,29.80,SE,133,5.0,8.0,75,0.00,CLR,,0.00,WeatherDisplay:10.37,2013-04-13 10:44:00,
2013-04-13 11:59:00,49.0,40.8,29.80,SE,127,3.0,5.0,73,0.00,CLR,,0.00,WeatherDisplay:10.37,2013-04-13 10:59:00,
2013-04-13 12:14:00,49.9,39.8,29.80,SE,125,6.0,7.0,68,0.00,CLR,,0.00,WeatherDisplay:10.37,2013-04-13 11:14:00,
2013-04-13 12:29:00,49.3,38.4,29.80,SE,126,5.0,7.0,66,0.00,CLR,,0.00,WeatherDisplay:10.37,2013-04-13 11:29:00,
2013-04-13 12:44:00,49.6,37.9,29.80,East,84,6.0,8.0,64,0.00,CLR,,0.00,WeatherDisplay:10.37,2013-04-13 11:44:00,
2013-04-13 13:29:00,52.3,38.0,29.77,ESE,103,8.0,13.0,58,0.00,CLR,,0.00,WeatherDisplay:10.37,2013-04-13 12:29:00,
2013-04-13 13:44:00,51.8,37.5,29.77,East,94,3.0,9.0,58,0.00,CLR,,0.00,WeatherDisplay:10.37,2013-04-13 12:44:00,
2013-04-13 13:59:00,52.7,38.8,29.77,SE,145,3.0,6.0,59,0.00,CLR,,0.00,WeatherDisplay:10.37,2013-04-13 12:59:00,
2013-04-13 14:43:00,51.8,36.1,29.77,SE,124,2.0,14.0,55,0.00,CLR,,0.00,WeatherDisplay:10.37,2013-04-13 13:43:00,
2013-04-13 14:59:00,52.5,36.8,29.74,ESE,117,2.0,8.0,55,0.00,CLR,,0.00,WeatherDisplay:10.37,2013-04-13 13:59:00,
2013-04-13 15:13:00,52.5,35.9,29.74,SSW,193,3.0,11.0,53,0.00,CLR,,0.00,WeatherDisplay:10.37,2013-04-13 14:13:00,
2013-04-13 15:28:00,52.7,36.0,29.74,ESE,117,8.0,9.0,53,0.00,CLR,,0.00,WeatherDisplay:10.37,2013-04-13 14:28:00,
2013-04-13 15:43:00,52.5,34.4,29.74,SE,137,15.0,15.0,50,0.00,CLR,,0.00,WeatherDisplay:10.37,2013-04-13 14:43:00,
2013-04-13 15:59:00,52.5,34.4,29.71,ESE,113,5.0,15.0,50,0.00,CLR,,0.00,WeatherDisplay:10.37,2013-04-13 14:59:00,
2013-04-13 16:13:00,52.7,34.6,29.71,East,96,9.0,12.0,50,0.00,CLR,,0.00,WeatherDisplay:10.37,2013-04-13 15:13:00,
2013-04-13 16:28:00,52.5,34.9,29.71,SE,143,7.0,9.0,51,0.00,CLR,,0.00,WeatherDisplay:10.37,2013-04-13 15:28:00,
2013-04-13 16:43:00,52.2,34.6,29.71,ENE,65,6.0,7.0,51,0.00,CLR,,0.00,WeatherDisplay:10.37,2013-04-13 15:43:00,
2013-04-13 16:58:00,52.2,34.6,29.68,East,85,5.0,9.0,51,0.00,CLR,,0.00,WeatherDisplay:10.37,2013-04-13 15:58:00,
2013-04-13 17:13:00,52.3,34.7,29.68,ESE,117,6.0,6.0,51,0.00,CLR,,0.00,WeatherDisplay:10.37,2013-04-13 16:13:00,
2013-04-13 17:28:00,52.3,34.7,29.68,ESE,115,13.0,14.0,51,0.00,CLR,,0.00,WeatherDisplay:10.37,2013-04-13 16:28:00,
2013-04-13 17:43:00,52.2,34.6,29.68,East,97,2.0,8.0,51,0.00,CLR,,0.00,WeatherDisplay:10.37,2013-04-13 16:43:00,
2013-04-13 18:28:00,51.8,35.2,29.65,East,97,7.0,8.0,53,0.00,CLR,,0.00,WeatherDisplay:10.37,2013-04-13 17:28:00,
2013-04-13 18:43:00,51.4,35.8,29.62,SSE,151,8.0,10.0,55,0.00,CLR,,0.00,WeatherDisplay:10.37,2013-04-13 17:43:00,
2013-04-13 18:59:00,50.7,37.3,29.62,ESE,117,7.0,14.0,60,0.00,CLR,,0.00,WeatherDisplay:10.37,2013-04-13 17:59:00,
2013-04-13 19:13:00,49.7,39.2,29.62,ENE,64,3.0,8.0,67,0.00,CLR,,0.00,WeatherDisplay:10.37,2013-04-13 18:13:00,
2013-04-13 19:28:00,49.4,39.7,29.62,ENE,72,12.0,12.0,69,0.00,CLR,,0.00,WeatherDisplay:10.37,2013-04-13 18:28:00,
2013-04-13 19:43:00,49.3,40.3,29.62,ENE,71,5.0,12.0,71,0.00,CLR,,0.00,WeatherDisplay:10.37,2013-04-13 18:43:00,
2013-04-13 19:58:00,48.9,41.0,29.62,ESE,104,6.0,10.0,74,0.00,CLR,,0.00,WeatherDisplay:10.37,2013-04-13 18:58:00,
2013-04-13 20:13:00,48.6,41.3,29.62,ENE,78,5.0,6.0,76,0.00,CLR,,0.00,WeatherDisplay:10.37,2013-04-13 19:13:00,
2013-04-13 20:29:00,48.2,42.3,29.62,East,90,3.0,9.0,80,0.00,CLR,,0.00,WeatherDisplay:10.37,2013-04-13 19:29:00,
2013-04-13 20:43:00,48.0,42.8,29.59,ENE,65,5.0,6.0,82,0.00,CLR,,0.00,WeatherDisplay:10.37,2013-04-13 19:43:00,
2013-04-13 20:58:00,47.8,43.2,29.59,ESE,105,3.0,5.0,84,0.00,CLR,,0.00,WeatherDisplay:10.37,2013-04-13 19:58:00,
2013-04-13 21:13:00,47.8,43.9,29.59,NNE,22,10.0,10.0,86,0.00,CLR,,0.00,WeatherDisplay:10.37,2013-04-13 20:13:00,
2013-04-13 21:28:00,47.8,43.9,29.56,ENE,70,7.0,10.0,86,0.00,CLR,,0.00,WeatherDisplay:10.37,2013-04-13 20:28:00,
2013-04-13 21:43:00,48.0,44.6,29.56,East,81,3.0,9.0,88,0.00,CLR,,0.00,WeatherDisplay:10.37,2013-04-13 20:43:00,
2013-04-13 21:58:00,48.0,45.2,29.56,ESE,107,5.0,12.0,90,0.00,CLR,,0.00,WeatherDisplay:10.37,2013-04-13 20:58:00,
2013-04-13 22:13:00,48.0,45.5,29.53,ENE,75,3.0,6.0,91,0.00,CLR,,0.00,WeatherDisplay:10.37,2013-04-13 21:13:00,
2013-04-13 22:28:00,48.4,45.9,29.50,ENE,78,6.0,6.0,91,0.00,CLR,,0.00,WeatherDisplay:10.37,2013-04-13 21:28:00,
2013-04-13 22:43:00,48.6,46.3,29.50,East,79,5.0,6.0,92,0.00,CLR,,0.00,WeatherDisplay:10.37,2013-04-13 21:43:00,
2013-04-13 22:58:00,48.7,46.5,29.50,ENE,70,3.0,9.0,92,0.00,CLR,,0.00,WeatherDisplay:10.37,2013-04-13 21:58:00,
2013-04-13 23:13:00,49.5,47.5,29.50,ENE,68,6.0,8.0,93,0.00,CLR,,0.00,WeatherDisplay:10.37,2013-04-13 22:13:00,
2013-04-13 23:28:00,49.6,48.0,29.47,East,86,5.0,10.0,94,0.00,CLR,,0.00,WeatherDisplay:10.37,2013-04-13 22:28:00,
2013-04-13 23:43:00,49.8,48.2,29.47,ESE,114,1.0,12.0,94,0.00,CLR,,0.00,WeatherDisplay:10.37,2013-04-13 22:43:00,
2013-04-13 23:58:00,50.0,48.6,29.47,SE,138,1.0,5.0,95,0.00,CLR,,0.00,WeatherDisplay:10.37,2013-04-13 22:58:00,